When you browse on this site, cookies collect data to enhance your experience and personalize the content and advertising you see.
Visit our Privacy Policy to learn more. By continuing to use the site, you agree to this use of cookies and data.
  • In Latvia
  • List of Countries
  • For 7 days
  • Water Temperature
  • Satellite Maps
  • Weather Map
  • Weather Widgets
  • user-avatar
    Login

    Hourly Weather Soldatskaya Duhovka

    Today, 22 January, Tuesday

    Time Temperature Precipitation Wind Pressure Humidity
    00:00 -15°C° 0 mm 3 mps 749 mmHg 92%
    01:00 -16°C° 0 mm 3 mps 749 mmHg 92%
    02:00 -16°C° 0 mm 3 mps 749 mmHg 93%
    03:00 -17°C° 0 mm 3 mps 749 mmHg 94%
    04:00 -17°C° 0 mm 3 mps 749 mmHg 95%
    05:00 -17°C° 0 mm 3 mps 750 mmHg 96%
    06:00 -18°C° 0 mm 3 mps 750 mmHg 97%
    07:00 -17°C° 0 mm 3 mps 751 mmHg 96%
    08:00 -17°C° 0 mm 3 mps 751 mmHg 96%
    09:00 -16°C° 0 mm 3 mps 752 mmHg 96%
    10:00 -16°C° 0 mm 3 mps 752 mmHg 94%
    11:00 -16°C° 0 mm 3 mps 752 mmHg 93%
    12:00 -17°C° 0 mm 4 mps 753 mmHg 91%
    13:00 -16°C° 0 mm 3 mps 753 mmHg 91%
    14:00 -16°C° 0 mm 3 mps 753 mmHg 91%
    15:00 -17°C° 0 mm 3 mps 753 mmHg 91%
    16:00 -18°C° 0 mm 3 mps 753 mmHg 92%
    17:00 -19°C° 0 mm 3 mps 754 mmHg 94%
    18:00 -20°C° 0 mm 2 mps 754 mmHg 95%
    19:00 -20°C° 0 mm 2 mps 754 mmHg 96%
    20:00 -21°C° 0 mm 2 mps 755 mmHg 96%
    21:00 -21°C° 0 mm 2 mps 755 mmHg 97%
    22:00 -23°C° 0 mm 2 mps 755 mmHg 97%
    23:00 -23°C° 0 mm 2 mps 756 mmHg 96%

    Tomorrow, 23 January, Wednesday

    Time Temperature Precipitation Wind Pressure Humidity
    00:00 -23°C° 0 mm 2 mps 756 mmHg 96%
    01:00 -23°C° 0 mm 2 mps 756 mmHg 96%
    02:00 -20°C° 0 mm 1 mps 756 mmHg 96%
    03:00 -20°C° 0 mm 1 mps 757 mmHg 95%
    04:00 -21°C° 0 mm 1 mps 757 mmHg 95%
    05:00 -21°C° 0 mm 1 mps 757 mmHg 95%
    06:00 -21°C° 0 mm 1 mps 757 mmHg 95%
    07:00 -21°C° 0 mm 1 mps 757 mmHg 94%
    08:00 -21°C° 0 mm 1 mps 757 mmHg 94%
    09:00 -21°C° 0 mm 1 mps 757 mmHg 94%
    10:00 -21°C° 0 mm 2 mps 758 mmHg 92%
    11:00 -20°C° 0 mm 2 mps 758 mmHg 91%
    12:00 -18°C° 0 mm 2 mps 758 mmHg 90%
    13:00 -18°C° 0 mm 2 mps 758 mmHg 91%
    14:00 -17°C° 0 mm 2 mps 758 mmHg 91%
    15:00 -15°C° 0 mm 1 mps 758 mmHg 91%
    16:00 -18°C° 0 mm 2 mps 758 mmHg 93%
    17:00 -20°C° 0 mm 2 mps 758 mmHg 94%
    18:00 -21°C° 0 mm 2 mps 758 mmHg 95%
    19:00 -21°C° 0 mm 2 mps 757 mmHg 95%
    20:00 -21°C° 0 mm 2 mps 757 mmHg 95%
    21:00 -23°C° 0 mm 3 mps 757 mmHg 95%
    22:00 -22°C° 0 mm 3 mps 757 mmHg 94%
    23:00 -21°C° 0 mm 3 mps 757 mmHg 93%

    Day after tomorrow, 24 January, Thursday

    Time Temperature Precipitation Wind Pressure Humidity
    00:00 -21°C° 0 mm 3 mps 757 mmHg 92%
    01:00 -20°C° 0 mm 4 mps 756 mmHg 92%
    02:00 -19°C° 0 mm 4 mps 755 mmHg 92%
    03:00 -18°C° 0 mm 4 mps 755 mmHg 92%
    04:00 -18°C° 0.7 mm 5 mps 754 mmHg 93%
    05:00 -17°C° 0.7 mm 5 mps 753 mmHg 94%
    06:00 -16°C° 0.7 mm 6 mps 752 mmHg 95%
    07:00 -16°C° 0.4 mm 6 mps 752 mmHg 94%
    08:00 -15°C° 0.4 mm 6 mps 751 mmHg 93%
    09:00 -13°C° 0.4 mm 5 mps 751 mmHg 92%
    10:00 -13°C° 0.4 mm 5 mps 751 mmHg 92%
    11:00 -12°C° 0.4 mm 5 mps 750 mmHg 93%
    12:00 -11°C° 0.4 mm 5 mps 750 mmHg 94%
    13:00 -10°C° 0.4 mm 4 mps 749 mmHg 94%
    14:00 -9°C° 0.4 mm 4 mps 749 mmHg 94%
    15:00 -8°C° 0.4 mm 4 mps 749 mmHg 94%
    16:00 -7°C° 0.2 mm 3 mps 749 mmHg 94%
    17:00 -7°C° 0.2 mm 3 mps 749 mmHg 95%
    18:00 -5°C° 0.2 mm 2 mps 749 mmHg 96%
    19:00 -5°C° 0.2 mm 2 mps 749 mmHg 96%
    20:00 -3°C° 0.2 mm 1 mps 749 mmHg 97%
    21:00 -3°C° 0.2 mm 1 mps 749 mmHg 97%
    22:00 -5°C° 0.1 mm 2 mps 750 mmHg 97%
    23:00 -5°C° 0.1 mm 2 mps 750 mmHg 97%

    25 January, Friday

    Time Temperature Precipitation Wind Pressure Humidity
    00:00 -5°C° 0.1 mm 2 mps 750 mmHg 97%
    01:00 -6°C° 0.1 mm 3 mps 750 mmHg 97%
    02:00 -7°C° 0.1 mm 3 mps 751 mmHg 96%
    03:00 -8°C° 0.1 mm 4 mps 751 mmHg 96%
    04:00 -9°C° 0 mm 4 mps 751 mmHg 96%
    05:00 -9°C° 0 mm 4 mps 751 mmHg 96%
    06:00 -10°C° 0 mm 4 mps 751 mmHg 95%
    07:00 -10°C° 0.1 mm 4 mps 751 mmHg 95%
    08:00 -11°C° 0.1 mm 5 mps 751 mmHg 95%
    09:00 -11°C° 0.1 mm 5 mps 751 mmHg 95%
    10:00 -10°C° 0.5 mm 5 mps 751 mmHg 95%
    11:00 -10°C° 0.5 mm 5 mps 751 mmHg 95%
    12:00 -8°C° 0.5 mm 5 mps 750 mmHg 95%
    13:00 -8°C° 0.9 mm 5 mps 750 mmHg 95%
    14:00 -7°C° 0.9 mm 5 mps 749 mmHg 96%
    15:00 -7°C° 0.9 mm 5 mps 749 mmHg 96%
    16:00 -5°C° 0.5 mm 4 mps 748 mmHg 96%
    17:00 -4°C° 0.5 mm 4 mps 748 mmHg 96%
    18:00 -4°C° 0.5 mm 4 mps 747 mmHg 96%
    19:00 -3°C° 0.4 mm 4 mps 747 mmHg 95%
    20:00 -3°C° 0.4 mm 4 mps 746 mmHg 95%
    21:00 -1°C° 0.4 mm 3 mps 746 mmHg 95%
    22:00 -1°C° 0.9 mm 3 mps 745 mmHg 95%
    23:00 -1°C° 0.9 mm 3 mps 745 mmHg 95%

    26 January, Saturday

    Time Temperature Precipitation Wind Pressure Humidity
    00:00 -1°C° 0.9 mm 3 mps 744 mmHg 95%
    01:00 -1°C° 0.5 mm 3 mps 744 mmHg 95%
    02:00 -1°C° 0.5 mm 3 mps 744 mmHg 96%
    03:00 -1°C° 0.5 mm 3 mps 744 mmHg 96%
    04:00 -4°C° 0 mm 3 mps 744 mmHg 96%
    05:00 -5°C° 0 mm 3 mps 744 mmHg 96%
    06:00 -7°C° 0 mm 3 mps 744 mmHg 97%
    07:00 -8°C° 0 mm 3 mps 744 mmHg 96%
    08:00 -10°C° 0 mm 3 mps 745 mmHg 96%
    09:00 -12°C° 0 mm 3 mps 745 mmHg 96%
    10:00 -12°C° 0 mm 3 mps 745 mmHg 96%
    11:00 -12°C° 0 mm 3 mps 745 mmHg 96%
    12:00 -12°C° 0 mm 3 mps 745 mmHg 96%
    13:00 -12°C° 0 mm 3 mps 745 mmHg 96%
    14:00 -12°C° 0 mm 3 mps 745 mmHg 96%
    15:00 -12°C° 0 mm 3 mps 744 mmHg 95%
    16:00 -12°C° 0 mm 4 mps 744 mmHg 95%
    17:00 -14°C° 0 mm 4 mps 744 mmHg 95%
    18:00 -14°C° 0 mm 4 mps 744 mmHg 95%
    19:00 -15°C° 0.1 mm 4 mps 744 mmHg 95%
    20:00 -15°C° 0.1 mm 4 mps 744 mmHg 95%
    21:00 -16°C° 0.1 mm 4 mps 744 mmHg 96%
    22:00 -16°C° 0.3 mm 4 mps 743 mmHg 96%
    23:00 -16°C° 0.3 mm 4 mps 743 mmHg 96%

    27 January, Sunday

    Time Temperature Precipitation Wind Pressure Humidity
    00:00 -17°C° 0.3 mm 4 mps 743 mmHg 96%
    01:00 -17°C° 0.2 mm 4 mps 743 mmHg 96%
    02:00 -17°C° 0.2 mm 4 mps 743 mmHg 95%
    03:00 -18°C° 0.2 mm 4 mps 743 mmHg 95%
    04:00 -18°C° 0.1 mm 4 mps 743 mmHg 95%
    05:00 -18°C° 0.1 mm 4 mps 743 mmHg 94%
    06:00 -19°C° 0.1 mm 4 mps 744 mmHg 94%
    07:00 -20°C° 0 mm 4 mps 744 mmHg 94%
    08:00 -21°C° 0 mm 3 mps 745 mmHg 95%
    09:00 -22°C° 0 mm 3 mps 745 mmHg 95%
    10:00 -21°C° 0 mm 3 mps 745 mmHg 94%
    11:00 -22°C° 0 mm 4 mps 746 mmHg 93%
    12:00 -20°C° 0 mm 4 mps 746 mmHg 92%
    13:00 -19°C° 0 mm 3 mps 747 mmHg 93%
    14:00 -19°C° 0 mm 3 mps 747 mmHg 93%
    15:00 -19°C° 0 mm 3 mps 747 mmHg 93%
    16:00 -21°C° 0 mm 3 mps 748 mmHg 95%
    17:00 -23°C° 0 mm 3 mps 748 mmHg 96%
    18:00 -23°C° 0 mm 2 mps 749 mmHg 98%
    19:00 -23°C° 0 mm 2 mps 749 mmHg 98%
    20:00 -24°C° 0 mm 2 mps 750 mmHg 98%
    21:00 -24°C° 0 mm 2 mps 750 mmHg 98%
    22:00 -25°C° 0 mm 2 mps 751 mmHg 98%
    23:00 -25°C° 0 mm 2 mps 751 mmHg 98%
    Show more